{"data":{"norad_id":61627,"intl_designator":"2024-191G","name":"STARLINK-32399","alt_names":[],"object_type":"PAYLOAD","status":"ACTIVE","operator":null,"country":"US","launch_date":"2024-10-23","launch_site_code":"AFETR","launch_vehicle":null,"mission":null,"orbit_class":"UNKNOWN","rcs_meters":null,"size_class":null,"mass_kg":null,"dimensions":null,"purposes":["comms"],"wikipedia_slug":null,"has_3d_model":false,"image_url":null,"decayed_at":null,"tle_current":{"epoch":"2026-09-21T15:53:27.468672Z","epoch_age_seconds":91667,"freshness":"FRESH","line1":"1 61627U 24191G   26264.66212348 -.00000142  00000+0  43633-5 0  9992","line2":"2 61627  43.0025 120.3280 0001510 270.0970  89.9709 15.27573683107597","mean_motion":15.27573683,"eccentricity":0.000151,"inclination_deg":43.0025,"raan_deg":120.328,"arg_perigee_deg":270.097,"mean_anomaly_deg":89.9709,"bstar":4.3633e-6,"rev_number":10759,"period_min":94.267138536453,"perigee_km":482.03196951863,"apogee_km":484.1040534321,"semimajor_km":6861.2050114754,"source":"CELESTRAK","updated_at":"2026-09-22T09:00:49.395815Z"}}}